Location: Peebles
(55.6412°N, 3.1714°W)
Time: 18:23:22
(UTC+00:00)

SL-8 Rocket - Visible Passes

Search period start: 16 January 2022 00:00
Search period end: 26 January 2022 00:00
Orbit: 958 x 990 km, 82.9° (Epoch: 15 January)

Date Brightness Start Highest point End Pass type
(mag) Time Alt. Az. Time Alt. Az. Time Alt. Az.
16 Jan 5.4 06:29:30 10° SSE 06:35:15 41° E 06:41:04 10° NNE visible
16 Jan 4.2 17:16:11 10° N 17:22:21 51° ENE 17:28:30 10° SE visible
16 Jan 5.3 19:01:48 10° NNW 19:07:38 40° W 19:13:26 10° SSW visible
17 Jan 6.9 05:12:36 10° ESE 05:15:50 15° ENE 05:19:05 10° NE visible
17 Jan 4.6 06:53:49 10° S 06:59:57 64° E 07:06:11 10° NNE visible
17 Jan 4.0 17:41:03 10° N 17:47:25 77° ENE 17:53:45 10° SSE visible
17 Jan 6.1 19:27:06 10° NNW 19:32:11 26° W 19:37:15 10° SW visible
18 Jan 6.3 05:35:28 10° SE 05:40:11 23° E 05:44:57 10° NNE visible
18 Jan 4.0 07:18:33 10° SSW 07:24:49 85° WNW 07:31:10 10° N visible
18 Jan 4.3 18:06:00 10° NNW 18:12:19 71° W 18:18:36 10° S visible
18 Jan 6.7 19:52:47 10° NW 19:56:35 17° WNW 20:00:23 10° WSW visible
19 Jan 5.6 05:59:06 10° SSE 06:04:41 36° E 06:10:20 10° NNE visible
19 Jan 5.1 18:31:04 10° NNW 18:37:04 46° W 18:43:02 10° SSW visible
19 Jan 7.2 20:20:15 10° WNW 20:20:49 10° WNW 20:21:24 10° WNW visible
20 Jan 7.0 04:42:54 10° E 04:45:23 13° ENE 04:47:53 10° NE visible
20 Jan 4.8 06:23:17 10° SSE 06:29:21 55° E 06:35:29 10° NNE visible
20 Jan 4.0 17:10:24 10° N 17:16:44 67° ENE 17:23:02 10° SSE visible
20 Jan 5.9 18:56:18 10° NNW 19:01:40 30° W 19:07:01 10° SW visible
21 Jan 6.5 05:05:20 10° ESE 05:09:42 20° ENE 05:14:05 10° NNE visible
21 Jan 4.1 06:47:54 10° S 06:54:10 85° E 07:00:30 10° NNE visible
21 Jan 4.2 17:35:19 10° NNW 17:41:41 81° W 17:48:01 10° S visible
21 Jan 6.6 19:21:49 10° NNW 19:26:07 19° WNW 19:30:23 10° WSW visible
22 Jan 5.8 05:28:46 10° SE 05:34:08 31° E 05:39:34 10° NNE visible
22 Jan 4.0 07:12:55 10° SSW 07:19:07 64° WNW 07:25:26 10° N visible
22 Jan 4.9 18:00:21 10° NNW 18:06:29 53° W 18:12:35 10° SSW visible
22 Jan 7.0 19:48:09 10° NW 19:50:24 12° WNW 19:52:39 10° W visible
23 Jan 7.1 04:13:39 10° E 04:14:57 11° ENE 04:16:16 10° NE visible
23 Jan 5.0 05:52:49 10° SSE 05:58:45 48° E 06:04:46 10° NNE visible
23 Jan 5.8 18:25:32 10° NNW 18:31:07 34° W 18:36:42 10° SSW visible
24 Jan 6.6 04:35:17 10° ESE 04:39:13 18° ENE 04:43:10 10° NE visible
24 Jan 4.2 06:17:17 10° S 06:23:31 75° E 06:29:51 10° NNE visible
24 Jan 4.1 17:04:39 10° NNW 17:11:03 89° ENE 17:17:23 10° S visible
24 Jan 6.5 18:50:56 10° NNW 18:55:38 22° WNW 19:00:17 10° SW visible
25 Jan 6.0 04:58:30 10° SE 05:03:37 27° E 05:08:47 10° NNE visible
25 Jan 4.0 06:42:11 10° SSW 06:48:26 73° WNW 06:54:48 10° N visible
25 Jan 4.7 17:29:39 10° NNW 17:35:53 61° W 17:42:05 10° S visible
25 Jan 6.9 19:16:52 10° NW 19:19:58 14° WNW 19:23:03 10° WSW visible
